Skip Page Navigation
NASA JPL Caltech
NASA Logo - Jet Propulsion Laboratory + View the NASA Portal
+ Center for Near-Earth Object Studies
JPL Home Earth Solar System Stars & Galaxies Technology
JPL Solar System Dynamics
BODIES ORBITS EPHEMERIDES TOOLS PHYSICAL DATA DISCOVERY FAQ SITE MAP

Significant website upgrade scheduled for September 27. More details available here.

JPL Small-Body Database Browser
Search: [ help ]  
10065 (1988 XK)
Classification: Main-belt Asteroid          SPK-ID: 2010065
Ephemeris | Orbit Diagram | Orbital Elements | Mission Design | Physical Parameters | Discovery Circumstances | Close-Approach Data ]

[ show orbit diagram ]
Orbital Elements at Epoch 2459396.5 (2021-Jul-01.0) TDB
Reference: JPL 37 (heliocentric ecliptic J2000)
 Element Value Uncertainty (1-sigma)   Units 
e .1764171563906762 2.4549e-08  
a 2.912167812822825 1.2022e-08 au
q 2.398411448352167 6.9525e-08 au
i 6.904215666754804 1.2657e-06 deg
node 236.760012877846 6.5878e-06 deg
peri 262.0924344434375 8.7222e-06 deg
M 150.4753236826658 7.5609e-06 deg
tp 2458637.772529398670
(2019-Jun-03.27252940)
3.5189e-05 TDB
period 1815.193898452759
4.97
1.1241e-05
3.078e-08
d
yr
n .1983259200611339 1.2281e-09 deg/d
Q 3.425924177293483 1.4143e-08 au
  Orbit Determination Parameters
   # obs. used (total)      2128  
   data-arc span      24721 days (67.68 yr)  
   first obs. used      1953-12-02  
   last obs. used      2021-08-08  
   planetary ephem.      DE441  
   SB-pert. ephem.      SB441-N16  
   condition code      0  
   norm. resid. RMS      .47377  
   source      ORB  
   producer      Otto Matic  
   solution date      2021-Aug-24 20:08:48  

Additional Information
 Earth MOID = 1.42439 au 
 Jupiter MOID = 1.70053 au 
 T_jup = 3.249 
[ show covariance matrix ]

Ephemeris | Orbit Diagram | Orbital Elements | Mission Design | Physical Parameters | Discovery Circumstances | Close-Approach Data ]

Physical Parameter Table
Parameter Symbol Value Units Sigma Reference Notes
absolute magnitude H 13.04   n/a MPO636218  
diameter diameter 12.222 km 0.097 urn:nasa:pds:neowise_diameters_albedos::2.0[mainbelt] (http://adsabs.harvard.edu/abs/2011ApJ...741...68M)  
rotation period rot_per 10.0172 h n/a LCDB (Rev. 2020-October); Warner et al., 2009 Result based on less than full coverage, so that the period may be wrong by 30 percent or so.
Published Reference List:
[Pal, A.; Szakats, R.; Kiss, C.; Bodi, A.; et al. (2019) Ap. J. Supl. Ser. 247, id.26.]
geometric albedo albedo 0.098   0.019 urn:nasa:pds:neowise_diameters_albedos::2.0[mainbelt] (http://adsabs.harvard.edu/abs/2011ApJ...741...68M)  

10065 (1988 XK)          Discovered 1988-Dec-03 by Oshima, Y. at Gekko
Reference: 19990302/Numbers.arcLast Updated: 2004-04-19

[ hide close-approach data ]
Close-Approach Data   ...sorted by Date/Time (TDB)
Date/Time (TDB) Time Uncertainty
(days_HH:MM)
Body Nominal Distance (au) Minimum Distance (au) Maximum Distance (au) V-relative (km/s) V-infinity (km/s) JD (TDB) Time Uncertainty (minutes) Semi-major axis (km) Semi-minor axis (km) range-LOV angle (deg) N-sigma BP Orbit Ref. Reference Modified
1902-Oct-01 00:43 00:02 Jupiter 1.71441017397074 1.71440984595317 1.71441050202758 1.30642975839104 0.847724909992547 2416023.529991075 2.37268787063744 740.375771557089 32.9502030428113 55.3785824061213 10090124.4502285 T 37 CATAB v2.0g-lin.ifort 2021-Aug-24 20:09:25 2021-Aug-24 20:09
1962-Aug-27 03:53 00:01 Jupiter 1.70483115471765 1.70483086127015 1.70483144816757 1.2245327618443 0.711201299749116 2437903.661925242 1.10677260716113 486.509040419947 40.3208064498298 21.8421815516263 7158670.88832749 T 37 CATAB v2.0g-lin.ifort 2021-Aug-24 20:09:25 2021-Aug-24 20:09
1996-Jul-16 07:03 < 00:01 Jupiter 1.94964521767201 1.94964497823806 1.94964545710596 2.60440163897078 2.43187351085745 2450280.793878976 0.376344582232423 25.5885372150889 3.97210435198659 80.8382349857303 5019887.60008554 T 37 CATAB v2.0g-lin.ifort 2021-Aug-24 20:09:25 2021-Aug-24 20:09
2022-Jul-25 09:00 < 00:01 Jupiter 1.757091783753 1.75709159552418 1.75709197198181 1.86658556416331 1.58745802528546 2459785.875016532 0.226837390824676 16.6144947148862 11.9430274919637 83.6978149775649 5527657.2654426 T 37 CATAB v2.0g-lin.ifort 2021-Aug-24 20:09:25 2021-Aug-24 20:09
2056-Jun-07 02:33 < 00:01 Jupiter 1.8134938753628 1.8134934065148 1.81349434421059 1.83309169682687 1.55759168808917 2472156.606555529 0.885938565633775 57.4199145137166 18.3060328393266 53.9744620911342 2812675.5977938 T 37 CATAB v2.0g-lin.ifort 2021-Aug-24 20:09:25 2021-Aug-24 20:09
2082-Jun-19 16:23 00:01 Jupiter 1.8658705156746 1.86586992705907 1.8658711042916 2.78837144005923 2.62051596749377 2481665.182715796 1.40724788240216 97.4563116348025 4.31533630673023 84.738649514273 5618779.53272217 T 37 CATAB v2.0g-lin.ifort 2021-Aug-24 20:09:25 2021-Aug-24 20:09
2116-May-07 18:25 00:02 Jupiter 1.72468120568711 1.72468064203883 1.72468176936744 1.23476550807518 0.736484384823289 2494040.267174149 2.16331849927937 826.969963393936 28.057427048386 40.3542803697334 19716438.739149 T 37 CATAB v2.0g-lin.ifort 2021-Aug-24 20:09:25 2021-Aug-24 20:09
2176-Apr-07 20:20 00:03 Jupiter 1.69791040650564 1.69791018832275 1.69791062468825 1.30166533267053 0.834631171232283 2515925.347043764 3.40907949880603 676.803728645146 34.914045485557 6.9939813017573 1966705.92674095 T 37 CATAB v2.0g-lin.ifort 2021-Aug-24 20:09:25 2021-Aug-24 20:09

Alternate Designations
 1988 XK = 1953 XL = 1978 WJ15 = 1990 HS3 
Ephemeris | Orbit Diagram | Orbital Elements | Mission Design | Physical Parameters | Discovery Circumstances | Close-Approach Data ]
ABOUT SSD CREDITS/AWARDS PRIVACY/COPYRIGHT GLOSSARY LINKS
FirstGov 2021-Sep-23 04:26 UT
(server date/time)  
NASA Home Page
Site Manager:   Ryan S. Park
Webmaster  Alan B. Chamberlin